Find Starlink 32665

NORAD ID: 62203 Int'l Des: 2024-229 Owner: SPXS Country: US Constellation: starlink operational
LEOCIRCULAR

現在のビュー

3D地球を読み込み中...

About Starlink 32665

Starlink 32665 (NORAD 62203) is a starlink constellation satellite (v2 mini) launched Dec 4, 2024 by SPXS of US. It operates in LEO, CIRCULAR orbit with a mass of 730.00 kg.

次回通過

Passes for default location (London). Set your location on the main map for personalized predictions.

高度履歴

Loading altitude history...

軌道要素

1 62203U 24229M 26263.36077341 .00014631 00000-0 54000-3 0 9999
2 62203 43.0025 251.3325 0001516 273.4958 86.5720 15.27589079100339
Epoch: Sep 20, 2026 • Age: 17 hours

現在のステータス

高度 490.2 km
遠地点 / 近地点 N/A
速度 7.62 km/s
衛星直下点 -29.70°S, 84.87°E
打ち上げ日 Dec 4, 2024
運用期間 1.7 years
タイプ internet

技術仕様

分類 Payload
質量 730.00 kg
乾燥質量 700.00 kg
長さ 0.30 m
スパン 29.00 m
形状 ? Box + pan
製造者 SPXS
バスタイプ Starlink V2M
フェーズステータス In Orbit
所有者/国 SPXS/US

Most Searched